COMSATBW-1

Last updated on Thu Oct 30 2025 00:02:48 GMT+0000 (Coordinated Universal Time)

1 35943U 09054B 25302.54673023 .00000033 00000+0 00000+0 0 9998 2 35943 0.0160 259.6558 0001991 341.7864 56.5566 1.00276261 58984
UTC large
Height (km)
Speed (km/s)
/
Latitude / Longitude
Inclination (degrees)
Orbital Period (minutes)
Azimuth
Elevation
Range (km)
Doppler Factor

Next 0 passes for location: London (51.5072 / 0.1276)

Sorry there are no passes over London.